STARLINK-3645, 51986

Orbit data source: Space-Track

STARLINK-3645, 51986 is a payload satellite owned by SpaceX/Seattle (US) in LEO that was launched on Wed, 09 Mar 2022 UTC via an FALCON 9 launch vehicle from the Air Force Eastern Test Range (AFETR). Payload-class satellites include a variety of spacecraft equipped with specific instruments for various scientific and technological missions. These include communications satellites like Starlink; space stations such as the ISS; scientific satellites like the Hubble; Earth observation satellites from companies like Planet Labs, Umbra, and HawkEye 360; GPS; miniature CubeSats for education and research; and military/defense satellites.

Loading next visibility...
Identifier
51986, 2022-025AG
Orbit
LEO
Country
Flag of USUS
Related business
Manufacturer
SpaceX/Seattle
Mission
Operational Commercial Communications
Bus & Motor
STARLINK, Unknown motor
Mass
297 kg wet, ~275 kg dry
Launch date (UTC)
2022-03-09 (4 years ago)
Launch vehicle
FALCON 9
Launch site
Air Force Eastern Test Range (AFETR)
Object type
Payload
Rocket body
Debris
Shape & HBR
Box + 1 Pan, 10.1 m
Radar Cross Section
13.562 m², Large (>1 m²)

Expand to show TLE details & history
Last TLE update: 19 hours ago

TLE from 19 hours ago
0 STARLINK-3645
1 51986U 22025AG  25346.64578405 -.00001226  00000-0 -58948-4 0  9990
2 51986  53.2180  69.7207 0001387  96.8673 263.2477 15.08832997207922
Epoch: 2025-12-12T15:29Z
TLE epoch observation values (Epoch: 2025-12-12T15:29:55.741Z)
Latitude
-0.00004°
Longitude
115.65399°
Altitude
540.775 km
Speed
7.593 km/s
True Right ascension
04h 38m 52s
True Declination
0° 00' 00"
Sunlit
Object was in full shadow at epoch
Visualization orbit readout
Latitude
Unknown
Longitude
Unknown
Altitude
Unknown
Speed
Unknown
Apparent Right ascension
Unknown
Apparent Declination
Unknown
Sunlit
N/A
Visualization observer readout
Local Sidereal Time
09:16:58
Azimuth
Unknown
Elevation
Unknown
Doppler factor
Unknown
Orbital elements
Apogee altitude
540.969 km
Perigee altitude
539.05 km
Semi-major axis
6,918.147 km
Eccentricity
0.00014
Inclination
53.218°
RAAN
69.7207°
Arg. of periapsis
96.8673°
True anomaly
263.23192°
Mean anomaly
263.2477°
Eccentric anomaly
263.23981°
Mean motion
3.77189 °/min
Orbital period
95.44 mins
BSTAR
-0.000058948
Loading maneuver chart data...
Computing Atmospheric mass density...
Loading historical data...
Loading historical data...
Loading historical data...
Loading historical data...
Loading historical data...
Loading historical data...
Loading historical data...

Documentation

Showing up to 5 results
|